Observations
| Time | Sensor | AQI | SAQ | Temp °C | Hum % | Pres Pa | CO μg/m³ | H₂S μg/m³ | NO μg/m³ | NO₂ μg/m³ | O₃ μg/m³ | SO₂ μg/m³ | CO₂e PPM | VOC PPM | PM1 μg/m³ | PM2.5 μg/m³ | PM4 μg/m³ | PM10 μg/m³ | TPS µm |
|---|---|---|---|---|---|---|---|---|---|---|---|---|---|---|---|---|---|---|---|
| Thursday 13 August 2026 | |||||||||||||||||||
| 07:17 | Trim Patrick St | 2 | 21.4 | 74 | 38,460 | 0 | 3.83 | 1.45 | 14.35 | 28.68 | 4.15 | 6.29 | 11.29 | 12.42 | |||||
| 07:16 | Trim Patrick St | 2 | 21.3 | 75 | 38,460 | 0 | 1.19 | 1.45 | 16.82 | 32.14 | 3.68 | 6.29 | 11.26 | 12.38 | |||||
| 07:15 | Trim Patrick St | 2 | 21.3 | 75 | 38,460 | 0 | 3.62 | 1.58 | 17.92 | 28.48 | 3.87 | 4.57 | 9.13 | 10.04 | |||||
| 07:15 | Trim Market St | 2 | 21.6 | 73 | 47,066 | 0.11 | 0 | 1.48 | 4.33 | 40.73 | 0 | 2.85 | 5.34 | 8.75 | |||||
| 07:14 | Trim Patrick St | 2 | 21.3 | 74 | 38,460 | 0 | 0.5 | 1.64 | 12.01 | 25.97 | 4.27 | 5.43 | 9.16 | 10.08 | |||||
| 07:14 | Trim Market St | 2 | 21.6 | 73 | 46,804 | 0.45 | 0 | 1.49 | 13.11 | 41.44 | 0 | 2.85 | 5.34 | 9.98 | |||||
| 07:13 | Trim Patrick St | 2 | 21.2 | 75 | 38,460 | 0 | 0 | 1.57 | 4.75 | 35.1 | 4.86 | 7.14 | 10.52 | 11.57 | |||||
| 07:12 | Trim Patrick St | 2 | 21.2 | 75 | 38,460 | 0 | 1.09 | 1.44 | 0.62 | 41.51 | 4.95 | 7.14 | 9.79 | 10.77 | |||||
| 07:11 | Trim Patrick St | 2 | 21.2 | 75 | 38,460 | 0 | 1.27 | 1.49 | 18.42 | 24.19 | 3.55 | 5.43 | 9.08 | 9.99 | |||||
| 07:10 | Trim Patrick St | 2 | 21.1 | 75 | 38,460 | 0 | 2.04 | 1.46 | 13.14 | 28.77 | 4.1 | 6.29 | 9.78 | 10.76 | |||||
| 07:09 | Trim Patrick St | 2 | 21.1 | 76 | 38,460 | 0 | 0 | 1.53 | 4.23 | 32.04 | 4.62 | 3.71 | 7.64 | 8.41 | |||||
| 07:08 | Trim Patrick St | 2 | 21.1 | 75 | 38,460 | 0 | 2.46 | 1.56 | 12.68 | 29.18 | 4.25 | 7.14 | 11.2 | 12.32 | |||||
| 07:07 | Trim Patrick St | 2 | 21.1 | 75 | 38,460 | 0 | 2.54 | 1.51 | 15.1 | 26.98 | 4.15 | 7.14 | 11.23 | 12.35 | |||||
| 07:06 | Trim Patrick St | 2 | 21.1 | 75 | 38,460 | 0 | 0 | 1.48 | 11.2 | 26.59 | 3.99 | 5.43 | 11.22 | 12.35 | |||||
| 07:06 | Trim Market St | 2 | 21.5 | 73 | 45,121 | 0 | 0 | 1.35 | 6 | 39.06 | 0 | 2.85 | 4.36 | 7.53 | |||||
| 07:05 | Trim Patrick St | 2 | 21.1 | 75 | 38,460 | 0 | 1.52 | 1.47 | 7.8 | 32.59 | 4.49 | 6.29 | 9.82 | 10.8 | |||||
| 07:05 | Trim Market St | 2 | 21.4 | 73 | 44,952 | 0.01 | 0 | 1.32 | 6.84 | 39.37 | 0 | 4.28 | 5.33 | 10.58 | |||||
| 07:04 | Trim Patrick St | 2 | 21 | 75 | 38,460 | 0 | 0.49 | 1.49 | 11.82 | 28.26 | 3.31 | 7.14 | 10.52 | 11.57 | |||||
| 07:04 | Trim Market St | 2 | 21.4 | 73 | 44,756 | 0.01 | 0 | 1.29 | 4.23 | 39.48 | 0 | 3.56 | 5.33 | 8.75 | |||||
| 07:03 | Trim Patrick St | 2 | 21 | 75 | 38,460 | 0 | 1.41 | 1.57 | 13.89 | 25.93 | 3.92 | 6.29 | 10.49 | 11.54 | |||||